User: anonymous   Login
Location: Unspecified
(0.0000°N, 0.0000°E)
Time: 04:59:35
(UTC+02:00)
Language:

NOAA 12 - Orbit

View from above orbital plane
View from above orbital plane
View from above satellite
View from above satellite

Ground track
Ground track

The orbit data is extracted from the following two-line orbital elements,

1 21263U 91032A   18147.56760414 +.00000013 +00000-0 +23553-4 0  9999
2 21263 098.5375 168.3007 0013598 000.7112 359.4085 14.25868866405541
Epoch (UTC): 27 May 2018 13:37:20
Eccentricity: 0.0013598
inclination: 98.5375°
perigee height: 796 km
apogee height: 815 km
right ascension of ascending node: 168.3007°
argument of perigee: 0.7112°
revolutions per day: 14.25868866
mean anomaly at epoch: 359.4085°
orbit number at epoch: 40554

The dashed part of the orbit path shows where the satellite is in the earth's shadow,  

DLR